File timestamp: Mon Aug  8 02:00:00 2016, Internal temp: 41.80908203125
1470621601, 0.164312213659286, -0.0187212750315666, -0.0144218523055315, 33184, 32695, 23426, -160.916641235352
1470621601, 0.167283207178116, -0.017876947298646, -0.0155382417142391, 33213, 32668, 23402, NaN
1470621602.008, 0.165528386831284, -0.0184585601091385, -0.0165941435843706, 33287, 32609, 23383, NaN
1470621603.008, 0.180497407913208, -0.0183795373886824, -0.0178092401474714, 33272, 32625, 23389, NaN
1470621604.008, 0.208793714642525, -0.0180151704698801, -0.01714370213449, 33196, 32683, 23427, NaN
1470621605.008, 0.220634341239929, -0.0174435842782259, -0.0156258605420589, 33207, 32683, 23430, NaN
1470621605.008, 0.210442990064621, -0.0176170151680708, -0.0152789754793048, 33259, 32616, 23407, NaN
1470621606.016, 0.19609609246254, -0.0176146849989891, -0.0152363358065486, 33248, 32629, 23390, NaN
1470621607.016, 0.195617541670799, -0.0178086776286364, -0.014480764977634, 33215, 32642, 23415, NaN
1470621608.016, 0.202489271759987, -0.0170800685882568, -0.0139651959761977, 33223, 32667, 23417, NaN
1470621609.016, 0.20216703414917, -0.0171614736318588, -0.0139121608808637, 33236, 32655, 23404, NaN
1470621609.016, 0.199158400297165, -0.017455717548728, -0.0129730375483632, 33250, 32642, 23398, NaN
1470621610.024, 0.194949612021446, -0.0180702395737171, -0.0123701272532344, 33194, 32625, 23442, NaN
1470621611.024, 0.169503897428513, -0.0166815556585789, -0.013762578368187, 33187, 32679, 23432, NaN
1470621612.014, 0.139217391610146, -0.015665914863348, -0.0140923857688904, 33216, 32653, 23404, NaN
1470621613.014, 0.131117880344391, -0.0159992557018995, -0.0140301641076803, 33214, 32673, 23385, NaN
1470621614.014, 0.147867828607559, -0.0165922809392214, -0.0138674145564437, 33253, 32641, 23396, NaN
1470621615.014, 0.161113545298576, -0.0182883497327566, -0.0133329210802913, 33214, 32630, 23417, NaN
1470621616.014, 0.145031109452248, -0.0188831817358732, -0.0130895655602217, 33195, 32621, 23441, NaN
1470621617.014, 0.100975334644318, -0.0173633005470037, -0.0147361969575286, 33197, 32644, 23392, NaN
1470621618.014, 0.0630789771676064, -0.0157237183302641, -0.0143484910950065, 33241, 32641, 23369, NaN
1470621619.014, 0.0611447095870972, -0.0153583455830812, -0.013252841308713, 33195, 32680, 23366, NaN
1470621620.014, 0.0853853523731232, -0.0168009605258703, -0.0119762336835265, 33239, 32629, 23392, NaN
1470621621.014, 0.0933604463934898, -0.01878871768713, -0.0119793303310871, 33168, 32670, 23439, NaN
1470621622.014, 0.0589411854743958, -0.0191412679851055, -0.0115367257967591, 33186, 32634, 23399, NaN
1470621623.014, 0.0120168840512633, -0.0180408339947462, -0.0114641627296805, 33197, 32643, 23370, NaN
1470621624.014, -0.0135404402390122, -0.016807783395052, -0.012438633479178, 33197, 32675, 23374, NaN
1470621625.014, -0.0147347459569573, -0.0169343054294586, -0.0130763500928879, 33269, 32635, 23392, NaN
1470621626.014, -0.0022034659050405, -0.0178579762578011, -0.0134604834020138, 33231, 32658, 23355, NaN
1470621627.014, 0.0154155576601624, -0.0194100961089134, -0.0136538222432137, 33181, 32637, 23382, NaN
1470621628.014, 0.00830073095858097, -0.0196064207702875, -0.0129217701032758, 33209, 32610, 23448, NaN
1470621628.014, -0.0338664054870605, -0.016989191994071, -0.0125916302204132, 33221, 32643, 23422, NaN
1470621629.016, -0.0590051375329494, -0.0161138903349638, -0.0126665867865086, 33255, 32656, 23354, NaN
1470621630.016, -0.0322263352572918, -0.0175536759197712, -0.0119340466335416, 33241, 32642, 23361, NaN
1470621631.016, 0.00252782669849694, -0.0187475830316544, -0.0112167624756694, 33202, 32601, 23443, NaN
1470621632.016, -0.00981411337852478, -0.018867926672101, -0.0107002630829811, 33191, 32623, 23419, NaN
1470621632.016, -0.0454962030053139, -0.0171175058931112, -0.0109171476215124, 33256, 32651, 23360, NaN
1470621633.018, -0.0486373864114285, -0.0156831536442041, -0.0113419936969876, 33266, 32675, 23348, NaN
1470621634.018, -0.0157791879028082, -0.0174648035317659, -0.0113268075510859, 33209, 32625, 23396, NaN
1470621635.018, -0.00255064805969596, -0.0190658010542393, -0.0105547234416008, 33175, 32661, 23399, NaN
1470621636.018, -0.0186925511807203, -0.0193162877112627, -0.0110462447628379, 33189, 32685, 23384, NaN
1470621636.018, -0.0372546352446079, -0.0186250768601894, -0.0117111578583717, 33234, 32665, 23368, NaN
1470621637.022, -0.0458783805370331, -0.0187716968357563, -0.0121373888105154, 33231, 32650, 23369, NaN
1470621638.022, -0.033963393419981, -0.0180297382175922, -0.0115513615310192, 33208, 32681, 23337, NaN
1470621639.022, -0.00924787297844887, -0.0186275411397219, -0.0108090741559863, 33219, 32680, 23379, NaN
1470621640.022, -0.0093169966712594, -0.0180682074278593, -0.0110857859253883, 33209, 32652, 23410, NaN
1470621641.022, -0.0314440429210663, -0.0189356729388237, -0.0117710204795003, 33258, 32625, 23377, NaN
1470621642.022, -0.0301386006176472, -0.018056858330965, -0.0125900814309716, 33272, 32621, 23342, NaN
1470621643.022, 0.0046039535664022, -0.0175991170108318, -0.0107965441420674, 33234, 32679, 23387, NaN
1470621644.022, 0.0190659146755934, -0.0174868572503328, -0.00903587508946657, 33186, 32675, 23433, NaN
1470621645.022, -0.0138729270547628, -0.017132455483079, -0.010453762486577, 33206, 32655, 23415, NaN
1470621646.022, -0.0466387942433357, -0.0178924556821585, -0.0120448144152761, 33268, 32608, 23346, NaN
1470621647.022, -0.0284974798560143, -0.0184614676982164, -0.0133947860449553, 33287, 32621, 23335, NaN
1470621648.022, 0.0247807446867228, -0.0186017043888569, -0.0125654526054859, 33272, 32647, 23393, NaN
1470621649.022, 0.0462966822087765, -0.0185394994914532, -0.0106730852276087, 33198, 32662, 23427, NaN
1470621650.022, 0.0136389611288905, -0.0184602197259665, -0.00977130513638258, 33225, 32629, 23430, NaN
1470621651.022, -0.0216530878096819, -0.018768047913909, -0.0113213509321213, 33217, 32653, 23362, NaN
1470621652.022, -0.0155904507264495, -0.0180274099111557, -0.0129615599289536, 33287, 32613, 23332, NaN
1470621653.022, 0.024936942383647, -0.0179588198661804, -0.0119522949680686, 33238, 32672, 23364, NaN
1470621654.022, 0.0523959323763847, -0.0177723094820976, -0.00938272289931774, 33231, 32632, 23435, NaN
1470621655.022, 0.0335127711296082, -0.018540171906352, -0.00805517844855785, 33182, 32672, 23425, -160.991119384766
1470621656.022, -0.00221496820449829, -0.0190504621714354, -0.00978929735720158, 33244, 32603, 23361, NaN
1470621657.022, -0.0167385376989841, -0.0190952736884356, -0.0106989815831184, 33277, 32633, 23370, NaN
1470621658.022, -0.00139201316051185, -0.0183773469179869, -0.0105404555797577, 33228, 32684, 23374, NaN
1470621659.022, 0.0291650108993053, -0.018518503755331, -0.010302709415555, 33255, 32627, 23393, NaN
1470621659.022, 0.0353071317076683, -0.0195915717631578, -0.0102461511269212, 33188, 32657, 23433, NaN
1470621660.03, -0.00290850130841136, -0.0181381274014711, -0.00934732705354691, 33239, 32637, 23394, NaN
1470621661.03, -0.0425989180803299, -0.0179175343364477, -0.0115625839680433, 33283, 32606, 23361, NaN
1470621662.03, -0.032970555126667, -0.0178820043802261, -0.0123337022960186, 33308, 32642, 23355, NaN
1470621663.03, 0.00433470262214541, -0.0179762672632933, -0.0111112790182233, 33241, 32671, 23365, NaN
1470621663.03, 0.028964014723897, -0.0189062915742397, -0.0090963589027524, 33214, 32648, 23396, NaN
1470621664.038, 0.0154059519991279, -0.0186485722661018, -0.00870786979794502, 33227, 32621, 23421, NaN
1470621665.038, -0.0259821619838476, -0.0185008030384779, -0.0097949905321002, 33304, 32614, 23361, NaN
1470621666.038, -0.0379231125116348, -0.0169942621141672, -0.0102354418486357, 33278, 32650, 23309, NaN
1470621667.038, -0.0093390941619873, -0.0167313124984503, -0.00916335266083479, 33241, 32667, 23362, NaN
1470621667.038, 0.0105936527252197, -0.0173964742571115, -0.00824660994112492, 33236, 32625, 23419, NaN
1470621668.046, 0.00232444191351533, -0.0180381592363119, -0.00836788304150105, 33248, 32651, 23386, NaN
1470621669.046, -0.012977990321815, -0.0169521681964397, -0.00971790309995413, 33278, 32607, 23366, NaN
1470621670.046, -0.0139045957475901, -0.0160773601382971, -0.0105208717286587, 33283, 32633, 23359, NaN
1470621671.046, 0.00243821903131902, -0.0167841445654631, -0.0108020231127739, 33224, 32676, 23357, NaN
1470621672.036, 0.0117178885266185, -0.0176539719104767, -0.0114048151299357, 33280, 32582, 23417, NaN
1470621673.036, -0.0039579919539392, -0.018242547288537, -0.0118759023025632, 33227, 32660, 23373, NaN
1470621674.036, -0.019815169274807, -0.0175783578306437, -0.0123426550999284, 33294, 32574, 23335, NaN
1470621675.036, -0.00558316567912698, -0.016536233946681, -0.0132413050159812, 33234, 32663, 23330, NaN
1470621676.036, 0.0194605998694897, -0.01560821197927, -0.0129825808107853, 33258, 32615, 23404, NaN
1470621677.036, 0.0216479618102312, -0.0161321461200714, -0.0133452601730824, 33232, 32634, 23400, NaN
1470621678.036, 0.00255204760469496, -0.0161351505666971, -0.0136721385642886, 33262, 32618, 23349, NaN
1470621679.036, -0.00544568989425898, -0.0156007735058665, -0.0148957325145602, 33262, 32608, 23334, NaN
1470621680.036, 0.0116514908149838, -0.0149762639775872, -0.0139776142314076, 33231, 32655, 23350, NaN
1470621681.036, 0.026814166456461, -0.0146182226017118, -0.0132879139855504, 33197, 32680, 23382, NaN
1470621682.036, 0.0117956390604377, -0.0142887989059091, -0.013271214440465, 33248, 32642, 23363, NaN
1470621683.036, -0.0122187854722142, -0.0145997423678637, -0.013688363134861, 33249, 32635, 23325, NaN
1470621684.036, -0.000277977815130726, -0.0142732048407197, -0.0133410366252065, 33239, 32630, 23298, NaN
1470621685.036, 0.0379989109933376, -0.0135401356965303, -0.01234698202461, 33217, 32642, 23383, NaN
1470621686.036, 0.0438938811421394, -0.013202091678977, -0.013404275290668, 33261, 32638, 23403, NaN
1470621686.036, 0.00926749780774117, -0.0122613469138741, -0.0127459140494466, 33246, 32635, 23384, NaN
1470621687.038, -0.021522019058466, -0.0116912368685007, -0.0125217856839299, 33272, 32599, 23340, NaN
1470621688.038, -0.0265593212097883, -0.0115296887233853, -0.012755929492414, 33258, 32622, 23329, NaN
1470621689.038, -0.0120868841186166, -0.0113922273740172, -0.0128356590867043, 33265, 32596, 23337, NaN
1470621690.038, 0.0120355673134327, -0.011387312784791, -0.0140140345320106, 33245, 32668, 23374, NaN
1470621690.04, 0.0179488193243742, -0.0117935044690967, -0.0137490956112742, 33251, 32615, 23388, NaN
1470621691.04, -0.00353683880530298, -0.011932035908103, -0.012814368121326, 33229, 32627, 23381, NaN
1470621692.04, -0.035261258482933, -0.011350754648447, -0.0130983190611005, 33238, 32630, 23334, NaN
1470621693.04, -0.0387685932219028, -0.011058890260756, -0.0133185032755136, 33287, 32622, 23303, NaN
1470621694.04, -0.00166796438861638, -0.0110027305781841, -0.0138804316520691, 33259, 32655, 23337, NaN
1470621694.04, 0.0247772466391325, -0.0117762666195631, -0.0127902887761593, 33214, 32620, 23419, NaN
1470621695.044, 0.00313715660013258, -0.0126083567738533, -0.013219409622252, 33226, 32600, 23393, NaN
1470621696.044, -0.0213268361985683, -0.0110228126868606, -0.0135014820843935, 33274, 32641, 23317, NaN
1470621697.044, -0.0107637587934732, -0.0102323088794947, -0.0138444351032376, 33248, 32648, 23347, NaN
1470621698.044, 0.00378177221864462, -0.0106757814064622, -0.0130625749006867, 33230, 32628, 23373, NaN
1470621699.044, 0.00208342145197093, -0.0119806565344334, -0.0121631259098649, 33195, 32642, 23366, NaN
1470621700.044, -0.00244323164224625, -0.0122801950201392, -0.0120451971888542, 33204, 32612, 23366, NaN
1470621701.044, -0.00881620496511459, -0.0118596963584423, -0.0122470138594508, 33293, 32598, 23359, NaN
1470621702.044, -0.00660328241065145, -0.0111611671745777, -0.0124290883541107, 33278, 32657, 23338, NaN
1470621703.044, 0.0121416309848428, -0.0129223540425301, -0.011199664324522, 33249, 32662, 23357, NaN
1470621704.044, 0.0145445074886084, -0.0146974660456181, -0.011045697145164, 33202, 32601, 23398, NaN
1470621705.044, -0.0149356722831726, -0.0158697962760925, -0.0124655114486814, 33226, 32605, 23376, NaN
1470621706.044, -0.0333589464426041, -0.0152947315946221, -0.0136477900668979, 33251, 32651, 23300, NaN
1470621707.044, -0.011734583415091, -0.0140536548569798, -0.013347358442843, 33271, 32626, 23349, NaN
1470621708.044, 0.0146083701401949, -0.013944860547781, -0.012166379019618, 33211, 32646, 23376, NaN
1470621709.044, 0.0122684324160218, -0.0145480325445533, -0.0126705700531602, 33208, 32634, 23388, -160.832885742188
1470621710.044, -0.00955001823604107, -0.014798616990447, -0.0135341333225369, 33226, 32618, 23366, NaN
1470621711.044, -0.0187955796718597, -0.0135839395225048, -0.0143949296325445, 33272, 32617, 23332, NaN
1470621712.044, -0.0021854848600924, -0.0134067414328456, -0.0147102037444711, 33227, 32653, 23371, NaN
1470621713.044, 0.0123448297381401, -0.0136916218325496, -0.0142587516456842, 33236, 32609, 23406, NaN
1470621714.044, 0.000232788181165233, -0.013552020303905, -0.0136119499802589, 33218, 32636, 23359, NaN
1470621715.044, -0.0124192405492067, -0.0131524987518787, -0.0144823901355267, 33228, 32627, 23363, NaN
1470621716.044, -0.00101959425956011, -0.0136065557599068, -0.015598782338202, 33212, 32631, 23344, NaN
1470621717.044, 0.0222002677619457, -0.0138243921101093, -0.0149628389626741, 33199, 32654, 23395, NaN
1470621717.044, 0.0381345525383949, -0.0132819414138794, -0.0142773408442736, 33215, 32631, 23385, NaN
1470621718.05, 0.0374748706817627, -0.0138037297874689, -0.0143667310476303, 33200, 32650, 23394, NaN
1470621719.05, 0.0364965796470642, -0.0134980957955122, -0.0151506932452321, 33215, 32626, 23349, NaN
1470621720.05, 0.0573372915387154, -0.0119058042764664, -0.0156138306483626, 33226, 32636, 23374, NaN
1470621721.05, 0.087188608944416, -0.0115748532116413, -0.0157434064894915, 33178, 32681, 23366, NaN
1470621721.05, 0.100042067468166, -0.0114336367696524, -0.0155176687985659, 33198, 32635, 23389, NaN
1470621722.058, 0.102522075176239, -0.0112346168607473, -0.015663729980588, 33225, 32645, 23345, NaN
1470621723.058, 0.13196536898613, -0.011368265375495, -0.0158886052668095, 33246, 32645, 23334, NaN
1470621724.058, 0.175244972109795, -0.0121806310489774, -0.0149442218244076, 33218, 32622, 23386, NaN
1470621725.058, 0.183292001485825, -0.0113691668957472, -0.0149837378412485, 33213, 32621, 23431, NaN
1470621725.058, 0.156404390931129, -0.010678730905056, -0.0154916364699602, 33191, 32666, 23358, NaN
1470621726.066, 0.148150786757469, -0.00909721106290817, -0.0166707430034876, 33227, 32659, 23320, NaN
1470621727.066, 0.190972059965134, -0.00866594724357128, -0.0170136261731386, 33269, 32642, 23323, NaN
1470621728.066, 0.242819651961327, -0.00953237805515528, -0.0161159299314022, 33202, 32631, 23436, NaN
1470621729.066, 0.235931143164635, -0.0103070121258497, -0.0154598476365209, 33148, 32622, 23449, NaN
1470621729.066, 0.179752632975578, -0.00883644446730614, -0.0168693698942661, 33185, 32645, 23385, NaN
1470621730.074, 0.152831539511681, -0.00887702312320471, -0.0185979809612036, 33259, 32676, 23311, NaN
1470621731.064, 0.186413317918777, -0.0097590871155262, -0.0188146233558655, 33270, 32657, 23356, NaN
1470621732.064, 0.231250986456871, -0.0110494755208492, -0.017742233350873, 33207, 32637, 23432, NaN
1470621733.064, 0.226872935891151, -0.012367719784379, -0.0168567877262831, 33170, 32651, 23460, NaN
1470621734.064, 0.167853251099586, -0.0116713894531131, -0.0167360510677099, 33206, 32639, 23396, NaN
1470621735.064, 0.11712758988142, -0.00990414153784513, -0.0176019594073296, 33231, 32672, 23338, NaN
1470621736.064, 0.135279044508934, -0.010048852302134, -0.0169262550771236, 33229, 32656, 23351, NaN
1470621737.064, 0.185039550065994, -0.0106789702549577, -0.0162224117666483, 33175, 32647, 23434, NaN
1470621738.064, 0.182793915271759, -0.0114645706489682, -0.0167970210313797, 33196, 32605, 23521, NaN
1470621739.064, 0.11626448482275, -0.0104209464043379, -0.017949128523469, 33212, 32659, 23444, NaN
1470621740.064, 0.0637087598443031, -0.00973343383520842, -0.0185896679759026, 33228, 32663, 23366, NaN
1470621741.064, 0.0763172879815102, -0.00984381791204214, -0.0185787975788116, 33212, 32671, 23373, NaN
1470621742.064, 0.104133576154709, -0.0112656494602561, -0.0180075224488974, 33173, 32650, 23445, NaN
1470621743.064, 0.0939487516880035, -0.011987111531198, -0.018763268366456, 33219, 32635, 23447, NaN
1470621744.064, 0.0541137456893921, -0.0107413399964571, -0.019767252728343, 33222, 32648, 23420, NaN
1470621745.064, 0.0237418282777071, -0.00919557269662619, -0.0213259421288967, 33187, 32675, 23433, NaN
1470621746.064, 0.0315050221979618, -0.00958569534122944, -0.0207102261483669, 33225, 32675, 23364, NaN
1470621747.064, 0.059700395911932, -0.0119153326377273, -0.0190761722624302, 33218, 32605, 23458, NaN
1470621748.064, 0.04585837200284, -0.0130784614011645, -0.0191603098064661, 33187, 32609, 23485, NaN
1470621748.064, -0.00633217580616474, -0.0111074261367321, -0.0210103671997786, 33235, 32638, 23393, NaN
1470621749.066, -0.030817799270153, -0.00946533866226673, -0.0209738630801439, 33223, 32675, 23358, NaN
1470621750.066, -0.00804064143449068, -0.0100180292502046, -0.020125575363636, 33244, 32632, 23384, NaN
1470621751.066, 0.0131762372329831, -0.00997184496372938, -0.0195602457970381, 33188, 32644, 23404, NaN
1470621752.066, 0.0030308032874018, -0.00985650718212128, -0.0200043693184853, 33205, 32611, 23437, NaN
1470621752.066, -0.0236480999737978, -0.00908467825502157, -0.0204688999801874, 33200, 32656, 23399, NaN
1470621753.068, -0.0413589291274548, -0.00818688608705997, -0.0210340283811092, 33227, 32622, 23383, NaN
1470621754.068, -0.0412443839013577, -0.0084278816357255, -0.0210094470530748, 33257, 32614, 23369, NaN
1470621755.068, -0.0256689693778753, -0.00872246362268925, -0.0215076468884945, 33210, 32690, 23364, NaN
1470621756.068, -0.0109216338023543, -0.0102130277082324, -0.0223773550242186, 33281, 32592, 23424, NaN
1470621757.068, -0.0216809250414371, -0.0101938489824533, -0.0233988501131535, 33184, 32678, 23416, NaN
1470621758.068, -0.0393873788416386, -0.0106749096885324, -0.0226413682103157, 33195, 32645, 23383, NaN
1470621759.068, -0.0400955006480217, -0.0104418452829123, -0.0219718795269728, 33205, 32675, 23387, NaN
1470621760.068, -0.0272093955427408, -0.0103224804624915, -0.022566644474864, 33238, 32649, 23406, NaN
1470621761.068, -0.0259030945599079, -0.0110865077003837, -0.0229813382029533, 33224, 32594, 23434, NaN
1470621762.068, -0.0388607122004032, -0.0110104633495212, -0.0221441350877285, 33234, 32645, 23364, NaN
1470621763.068, -0.0320324823260307, -0.011327070184052, -0.02217673137784, 33209, 32668, 23344, -160.829864501953
1470621764.068, -0.00971823930740356, -0.0125135919079185, -0.0214815270155668, 33248, 32631, 23381, NaN
1470621765.068, -0.00163061078637838, -0.0136179337278008, -0.0212957672774792, 33244, 32616, 23417, NaN
1470621766.068, -0.0120997577905655, -0.0146849909797311, -0.0214018058031797, 33175, 32664, 23413, NaN
1470621767.068, -0.0317708626389503, -0.0144401974976063, -0.0223150607198477, 33238, 32607, 23401, NaN
1470621768.068, -0.0363444127142429, -0.0142432758584619, -0.0225169807672501, 33188, 32679, 23355, NaN
1470621769.068, -0.0137666631489992, -0.0151408277451992, -0.0221670400351286, 33248, 32610, 23366, NaN
1470621770.068, 0.0137548288330436, -0.0165729392319918, -0.0221959669142962, 33227, 32600, 23428, NaN
1470621771.068, 0.0131286894902587, -0.016409307718277, -0.0217948611825705, 33223, 32602, 23429, NaN
1470621772.068, -0.015818040817976, -0.0155794452875853, -0.0222624931484461, 33222, 32628, 23394, NaN
1470621773.068, -0.0280866771936417, -0.0137578658759594, -0.0223293900489807, 33204, 32692, 23347, NaN
1470621774.068, -0.0016417212318629, -0.0150736337527633, -0.021516315639019, 33249, 32635, 23392, NaN
1470621775.068, 0.0171066429466009, -0.0164057482033968, -0.0212415549904108, 33237, 32578, 23412, NaN
1470621775.068, 0.00648077065125108, -0.0175083838403225, -0.0215833373367786, 33190, 32644, 23376, NaN
1470621776.074, 0.00471325544640422, -0.0167684834450483, -0.0220161564648151, 33280, 32623, 23346, NaN
1470621777.074, 0.0314474813640118, -0.0170374494045973, -0.0214349944144487, 33222, 32635, 23389, NaN
1470621778.074, 0.0363530106842518, -0.0181618202477694, -0.0206169784069061, 33239, 32593, 23420, NaN
1470621779.074, 0.00715157389640808, -0.0175080448389053, -0.0206694845110178, 33225, 32621, 23380, NaN
1470621779.074, -0.0124439019709826, -0.0174905955791473, -0.0211855433881283, 33209, 32661, 23367, NaN
1470621780.082, -0.00261424016207457, -0.0169936921447515, -0.0212839208543301, 33255, 32623, 23376, NaN
1470621781.082, 0.0180712267756462, -0.0174791011959314, -0.0220197793096304, 33219, 32632, 23393, NaN
1470621782.082, 0.0266816560178995, -0.0172598641365767, -0.0229420457035303, 33255, 32565, 23413, NaN
1470621783.082, 0.0135703179985285, -0.0159646347165108, -0.0231528859585524, 33247, 32664, 23377, NaN
1470621783.082, -0.000248427939368412, -0.0155579466372728, -0.022890493273735, 33273, 32625, 23362, NaN
1470621784.09, 0.00409640464931726, -0.0177855081856251, -0.0226063765585423, 33220, 32646, 23340, NaN
1470621785.09, 0.0105129657313228, -0.0182917919009924, -0.0221257228404284, 33295, 32553, 23374, NaN
1470621786.09, 0.00911558326333761, -0.0179512668401003, -0.0220492221415043, 33228, 32666, 23363, NaN
1470621787.09, 0.0012002830626443, -0.0172820426523685, -0.0232281740754843, 33261, 32609, 23386, NaN
1470621787.09, -0.0073078004643321, -0.0168457720428705, -0.0228794738650322, 33231, 32671, 23361, NaN
1470621788.098, -0.010157928802073, -0.0177267156541348, -0.0226595662534237, 33259, 32597, 23359, NaN
1470621789.098, -0.00393789913505316, -0.0188303384929895, -0.0221451725810766, 33256, 32613, 23364, NaN
1470621790.098, 0.0087768416851759, -0.0191717073321342, -0.0215750467032194, 33230, 32623, 23382, NaN
1470621791.098, 0.00644555361941457, -0.0182004366070032, -0.0215610004961491, 33221, 32677, 23385, NaN
1470621792.088, -0.00263159698806703, -0.0179873984307051, -0.0213222596794367, 33248, 32620, 23380, NaN
1470621793.088, -0.00744108343496919, -0.0190545581281185, -0.0207989457994699, 33275, 32581, 23373, NaN
1470621794.088, -0.0117340423166752, -0.0191228501498699, -0.0204907115548849, 33255, 32617, 23354, NaN
1470621795.088, -0.0148586677387357, -0.0184188093990088, -0.0213019587099552, 33240, 32649, 23359, NaN
1470621796.088, -0.0147919245064259, -0.0168598722666502, -0.0204555336385965, 33217, 32682, 23319, NaN
1470621797.088, -0.00251849205233157, -0.0176894869655371, -0.0192676670849323, 33270, 32591, 23325, NaN
1470621798.088, 0.00731806783005595, -0.0191325098276138, -0.0188034102320671, 33264, 32566, 23378, NaN
1470621799.088, -0.00405480014160275, -0.0187798738479614, -0.0182910412549973, 33222, 32631, 23393, NaN
1470621800.088, -0.017134465277195, -0.0181112438440323, -0.0178388357162476, 33255, 32671, 23356, NaN
1470621801.088, -0.0155260097235441, -0.0188811756670475, -0.0180009733885527, 33255, 32649, 23336, NaN
1470621802.088, 0.0017348836408928, -0.0202963352203369, -0.0175262242555618, 33276, 32570, 23331, NaN
1470621803.088, 0.0212225448340178, -0.020708192139864, -0.0168342664837837, 33277, 32565, 23392, NaN
1470621804.088, 0.0210507623851299, -0.0206737890839577, -0.0157872177660465, 33237, 32623, 23401, NaN
1470621805.088, 0.00763364089652896, -0.020069807767868, -0.0152025250717998, 33221, 32648, 23372, NaN
1470621806.088, -0.00922312494367361, -0.0205560121685266, -0.0155684920027852, 33246, 32622, 23352, NaN
1470621806.088, -0.0202487744390965, -0.0212118681520224, -0.0166732091456652, 33236, 32612, 23333, NaN
1470621807.09, -0.00109875947237015, -0.0215363949537277, -0.0162971708923578, 33289, 32602, 23336, NaN
1470621808.09, 0.0291752740740776, -0.0211474634706974, -0.0143718579784036, 33284, 32609, 23422, NaN